Location: Conflandey
(47.7287°N, 6.0456°E)
Time: 03:43:05
(UTC+00:00)

USA 215 - Pass Details

Date: 24 October 2021
Orbit: 1099 x 1109 km, 123.0° (Epoch: 20 November)

Event Time Altitude Azimuth Distance (km) Brightness Sun altitude
Exits shadow 19:08:35 30° 36° (NE) 1,859 4.2 -27.0°
Maximum altitude 19:11:11 43° 348° (NNW) 1,500 4.0 -27.5°
Drops below altitude 10° 19:17:17 10° 280° (W) 2,964 6.5 -28.5°
Sets 19:19:52 0° 274° (W) 3,923 7.3 -28.9°
